星链-30532 (STARLINK-30532 )

导读

STARLINK-30532是美国太空探索技术公司 SpaceX 星链互联网星座的成员,于2023年10月13日发射升空,归属星链 Gen2 批次,旨在构建覆盖全球的低轨卫星互联网通信网络,为全球各地用户提供高速宽带服务,进一步扩充星链星座的在轨规模与服务覆盖能力。

Basic Information
目录编号:
58070
目录名称:
STARLINK-30532
国际标识:
2023-158V
轨道中心:
EARTH
卫星名称:
星链-30532
卫星全名:
星链-30532 (STARLINK-30532 )
卫星状态:
在轨 (已飞行981 天)
发射日期:
2023-10-13 UTC
国别 :
美国 (US)
星等 :
--
Orbit Information
数据来源 国际轨道数据 AOE轨道数据
星历时间 2026-06-19T09:32:29+0800
1天前
查看轨道信息
2026-06-15T06:00:00+0800
5天前
查看轨道信息
半长轴 6861.769km 6861.188km
偏心率 0.0002203 0.0001341
轨道倾角 43.003° 43.000°
近地点辐角 243.093° 243.768°
升交点赤经 174.559° 197.983°
平近点角 116.970° 321.315°
近地点 482.12km 482.13km
远地点 485.144km 483.972km
周期 94.279分钟 94.267分钟
每日圈数 15.273854 15.275796
Detailed Information
固有亮度:
5
最大亮度:
0.3
卫星平台:
Starlink v2.0 mini
覆盖范围:
全球
运营商:
太空探索技术公司
运营商所在国:
美国
制造商(研发单位):
太空探索技术公司
制造商所在国:
美国
使用方式:
暂无
Satellite Introduction
星链(Starlink)计划是由太空探索技术公司(SpaceX)提出的一个巨型低轨卫星互联网星座项目,计划在2019年至2024年间在太空搭建由约1.2万颗卫星组成的“星链”网络,其中1584颗将部署在地球上空550千米处的近地轨道,并从2020年开始工作。该卫星仍在工作。
2D Orbit Map
3D Orbit Map
Orbit Altitude Analysis Chart
Orbit Inclination Analysis Chart
Orbit Comprehensive Analysis Chart
View Comprehensive Chart